sat.trackr.live / text

‹ back to catalog

STARLINK-33749

NORAD 63716 · 2025-087V

PAYLOAD ACTIVE UNKNOWN

§ Identity

Operator
Country
US
Launch date
2025-04-28
Launch site
AFWTR
Launch vehicle
Mass (kg)
RCS (m²)

Purposes: comms

External: N2YO · Heavens-Above · Gunter

§ Orbital elements

Epoch: 2026-09-20T19:44:45.950784Z

Period
94.01 min
Inclination
53.1635°
Eccentricity
0.0002293
Mean motion
15.31711557 rev/d
Perigee alt
469.1 km
Apogee alt
472.3 km
Semi-major
6,848.8 km
B*
5.3798e-4
RAAN
31.8878°
Arg perigee
39.6903°
Mean anomaly
320.4266°
Rev number
7,909

§ Raw data

STARLINK-337491 63716U 25087V   26263.82275406  .00016372  00000+0  53798-3 0  99912 63716  53.1635  31.8878 0002293  39.6903 320.4266 15.31711557 79093

JSON: /api/v1/satellites/63716 · /tle

For live sub-satellite position, see the globe view (requires WebGL).

§ Visibility from observer

Set your observer location to see the next 7 days of passes ≥ 10°. The values pass through the URL so the page stays shareable.

No JS? Fill the form by hand. The geolocation button needs JavaScript.